EW8926 Weather Reports


Display with metric or nautical units.
time (UTC)temp
F
wind
direction
speed
MPH
gust
MPH
rain 1hr
in
rain 24hr
in
rain mn
in
humidity
%
barometer
mb
20260510084606 58 135 1.0 2.0 0.00 0.06 0.06 92 1015.7
20260510084104 58 136 1.0 2.0 0.00 0.06 0.06 92 1015.7
20260510083609 58 151 1.0 3.0 0.00 0.06 0.06 92 1015.7
20260510083104 58 148 0.0 3.0 0.00 0.06 0.06 92 1015.7
20260510082609 58 279 0.0 3.0 0.00 0.06 0.06 93 1015.7
20260510082104 58 118 0.0 2.0 0.00 0.06 0.06 93 1015.7
20260510081604 58 42 0.0 2.0 0.00 0.06 0.06 93 1015.7
20260510081105 58 40 1.0 2.0 0.00 0.06 0.06 93 1015.7
20260510080104 58 259 1.0 3.0 0.00 0.06 0.06 93 1015.7
20260510075604 58 195 0.0 2.0 0.00 0.06 0.06 93 1015.6
20260510075105 58 242 1.0 2.0 0.00 0.06 0.06 93 1015.6
20260510074605 58 242 1.0 2.0 0.00 0.06 0.06 94 1015.6
20260510074104 58 242 1.0 2.0 0.00 0.06 0.06 94 1015.5
20260510073104 58 128 0.0 2.0 0.00 0.06 0.06 94 1015.5
20260510072604 58 126 0.0 2.0 0.00 0.06 0.06 94 1015.5
20260510072104 58 126 0.0 2.0 0.00 0.06 0.06 94 1015.5
20260510071605 58 126 0.0 2.0 0.00 0.06 0.06 94 1015.5
20260510071104 58 126 0.0 2.0 0.00 0.06 0.06 95 1015.6
20260510070606 57 126 0.0 2.0 0.00 0.06 0.06 95 1015.6
20260510070106 57 126 0.0 2.0 0.00 0.06 0.06 95 1015.6
20260510065603 57 126 0.0 2.0 0.00 0.06 0.06 95 1015.7
20260510065104 57 126 1.0 3.0 0.00 0.06 0.06 95 1015.7
20260510064103 57 128 2.0 2.0 0.00 0.06 0.06 95 1015.6
20260510063604 57 128 2.0 5.0 0.00 0.06 0.06 95 1015.5
20260510063104 57 125 1.0 5.0 0.00 0.06 0.06 95 1015.5
20260510061105 57 138 1.0 3.0 0.00 0.06 0.06 95 1015.4
20260510060104 57 139 0.0 2.0 0.00 0.06 0.06 95 1015.4
20260510055604 57 139 0.0 1.0 0.01 0.06 0.06 95 1015.3
20260510055104 57 139 1.0 1.0 0.01 0.06 0.06 95 1015.3
20260510054604 57 139 1.0 2.0 0.01 0.06 0.06 95 1015.3
20260510054104 57 139 1.0 2.0 0.01 0.06 0.06 95 1015.2
20260510053604 56 139 1.0 3.0 0.01 0.06 0.06 95 1015.2
20260510053104 56 146 1.0 3.0 0.02 0.06 0.06 95 1015.2
20260510052104 56 147 0.0 2.0 0.02 0.06 0.06 95 1015.1
20260510051104 56 147 0.0 1.0 0.02 0.06 0.06 94 1015.1
20260510050604 56 147 0.0 2.0 0.04 0.06 0.06 94 1015.1
20260510050104 56 147 2.0 2.0 0.04 0.06 0.06 94 1015.1
20260510045604 56 147 2.0 1.0 0.03 0.05 0.05 94 1015.0
20260510045104 56 147 2.0 2.0 0.03 0.05 0.05 93 1015.0
20260510044604 56 148 2.0 3.0 0.03 0.05 0.05 93 1015.0
20260510044105 56 154 2.0 5.0 0.03 0.05 0.05 93 1015.0
20260510042603 56 284 1.0 3.0 0.02 0.04 0.04 92 1015.1
20260510042104 56 265 2.0 2.0 0.02 0.04 0.04 92 1015.1
20260510041604 56 84 2.0 2.0 0.02 0.04 0.04 92 1015.1
20260510041104 56 37 1.0 2.0 0.02 0.04 0.04 92 1015.0
20260510040604 56 148 1.0 5.0 0.01 0.02 0.02 92 1014.9
20260510040104 56 225 2.0 3.0 0.01 0.02 0.02 91 1014.9
20260510035604 56 138 2.0 3.0 0.01 0.02 0.02 91 1014.9
20260510035119 56 249 2.0 5.0 0.01 0.02 0.02 91 1014.9
20260510034604 56 255 2.0 6.0 0.02 0.02 0.02 91 1014.9
20260510034104 56 283 2.0 5.0 0.02 0.02 0.02 90 1015.0
20260510033103 56 154 2.0 5.0 0.02 0.02 0.02 90 1015.0
20260510032604 57 258 2.0 3.0 0.02 0.02 0.02 89 1014.9
20260510032104 57 351 2.0 3.0 0.02 0.02 0.02 89 1014.9
20260510030604 58 303 2.0 6.0 0.01 0.01 0.01 87 1014.5
20260510025604 58 325 2.0 5.0 0.01 0.01 0.01 87 1014.5
20260510025104 58 303 2.0 5.0 0.01 0.01 0.01 86 1014.5
20260510024604 59 295 2.0 5.0 0.00 0.00 0.00 87 1014.5
20260510023103 58 283 1.0 3.0 0.00 0.00 0.00 88 1014.3
20260510022604 58 133 0.0 2.0 0.00 0.00 0.00 88 1014.3
20260510022104 58 133 0.0 2.0 0.00 0.00 0.00 88 1014.3
20260510021607 58 133 0.0 2.0 0.00 0.00 0.00 88 1014.3
20260510020604 58 133 1.0 0.0 0.00 0.00 0.00 88 1014.4
20260510020104 58 133 1.0 2.0 0.00 0.00 0.00 88 1014.4
20260510015604 58 133 0.0 2.0 0.00 0.00 0.00 88 1014.3
20260510015105 58 133 2.0 2.0 0.00 0.00 0.00 88 1014.3
20260510014606 58 133 2.0 2.0 0.00 0.00 0.00 88 1014.3
20260510013604 58 20 2.0 3.0 0.00 0.00 0.00 87 1014.7
20260510012604 58 118 2.0 5.0 0.00 0.00 0.00 88 1014.8
20260510011605 58 127 2.0 6.0 0.00 0.00 0.00 87 1014.8
20260510011104 58 123 2.0 5.0 0.00 0.00 0.00 87 1014.9
20260510010611 58 117 2.0 5.0 0.00 0.00 0.00 87 1014.9
20260510010105 58 117 2.0 3.0 0.00 0.00 0.00 86 1014.9
20260510005607 58 117 2.0 5.0 0.00 0.00 0.00 86 1015.0
20260510005105 58 125 1.0 5.0 0.00 0.00 0.00 86 1015.1
20260510004604 58 125 1.0 2.0 0.00 0.00 0.00 87 1015.1
20260510004104 58 125 1.0 2.0 0.00 0.00 0.00 87 1015.2
20260510003604 57 125 0.0 2.0 0.00 0.00 0.00 87 1015.3
20260510003104 57 125 1.0 0.0 0.00 0.00 0.00 87 1015.3
20260510002604 57 125 1.0 0.0 0.00 0.00 0.00 87 1015.4
20260510002119 57 125 2.0 2.0 0.00 0.00 0.00 87 1015.5
20260510001604 57 125 2.0 2.0 0.00 0.00 0.00 87 1015.5
20260510001107 58 125 1.0 3.0 0.00 0.00 0.00 86 1015.5
20260510000604 58 125 1.0 3.0 0.00 0.00 0.00 86 1015.5
20260509235606 58 125 0.0 2.0 0.00 0.00 0.00 86 1015.7
20260509235104 58 125 0.0 0.0 0.00 0.00 0.00 86 1015.8
20260509233604 58 125 0.0 2.0 0.00 0.00 0.00 87 1015.8
20260509232619 58 125 1.0 0.0 0.00 0.00 0.00 86 1015.9
20260509231605 58 125 1.0 2.0 0.00 0.00 0.00 86 1015.9
20260509231104 59 125 1.0 2.0 0.00 0.00 0.00 86 1015.8
20260509230604 59 125 0.0 2.0 0.00 0.00 0.00 86 1015.7
20260509230104 59 125 1.0 0.0 0.00 0.00 0.00 86 1015.7
20260509225604 59 125 1.0 2.0 0.00 0.00 0.00 86 1015.6
20260509225104 59 125 1.0 3.0 0.00 0.00 0.00 85 1015.5
20260509224604 59 125 1.0 2.0 0.00 0.00 0.00 85 1015.5
20260509224107 59 125 2.0 2.0 0.00 0.00 0.00 85 1015.6
20260509223604 59 125 2.0 3.0 0.00 0.00 0.00 85 1015.7
20260509223104 59 125 2.0 2.0 0.00 0.00 0.00 85 1015.7
20260509222604 59 125 2.0 3.0 0.00 0.00 0.00 84 1015.8
20260509221604 59 125 2.0 3.0 0.00 0.00 0.00 84 1015.8
20260509221104 59 125 2.0 3.0 0.00 0.00 0.00 84 1015.9
20260509220605 59 134 1.0 5.0 0.00 0.00 0.00 83 1015.9
20260509220104 59 160 1.0 2.0 0.00 0.00 0.00 83 1015.9
20260509215604 59 160 1.0 2.0 0.00 0.00 0.00 82 1015.8
20260509215107 59 132 0.0 2.0 0.00 0.00 0.00 82 1015.8
20260509214606 59 132 0.0 2.0 0.00 0.00 0.00 82 1015.8
20260509214104 59 132 2.0 2.0 0.00 0.00 0.00 82 1015.9
20260509213604 60 132 2.0 2.0 0.00 0.00 0.00 81 1015.9
20260509213104 60 132 1.0 3.0 0.00 0.00 0.00 81 1015.9
20260509212607 60 132 0.0 2.0 0.00 0.00 0.00 81 1015.8
20260509212104 60 132 0.0 3.0 0.00 0.00 0.00 81 1015.8
20260509211104 60 132 2.0 0.0 0.00 0.00 0.00 80 1015.9
20260509210604 61 132 2.0 2.0 0.00 0.00 0.00 79 1015.9
20260509210108 61 132 1.0 2.0 0.00 0.00 0.00 79 1015.9
20260509205104 61 132 1.0 3.0 0.00 0.00 0.00 78 1015.9
20260509204607 62 136 0.0 2.0 0.00 0.00 0.00 78 1015.9
20260509204104 62 138 0.0 0.0 0.00 0.00 0.00 78 1015.9
20260509203104 62 138 1.0 2.0 0.00 0.00 0.00 78 1015.9
20260509202604 62 138 1.0 2.0 0.00 0.00 0.00 79 1015.9
20260509202104 62 138 1.0 2.0 0.00 0.00 0.00 79 1015.9
20260509201604 62 138 1.0 2.0 0.00 0.00 0.00 79 1015.9
20260509201104 63 138 1.0 2.0 0.00 0.00 0.00 79 1015.8
20260509200604 63 138 1.0 3.0 0.00 0.00 0.00 79 1015.7
20260509200104 63 138 2.0 2.0 0.00 0.00 0.00 79 1015.7
20260509195104 64 138 2.0 2.0 0.00 0.00 0.00 78 1015.6
20260509194604 64 138 2.0 2.0 0.00 0.00 0.00 78 1015.6
20260509194104 64 138 1.0 3.0 0.00 0.00 0.00 77 1015.5
20260509193611 64 138 1.0 3.0 0.00 0.00 0.00 77 1015.4
20260509193109 65 138 0.0 5.0 0.00 0.00 0.00 77 1015.4
20260509192104 65 152 0.0 2.0 0.00 0.00 0.00 76 1015.1
20260509191611 65 152 0.0 0.0 0.00 0.00 0.00 76 1015.1
20260509190611 66 152 0.0 0.0 0.00 0.00 0.00 73 1015.2
20260509190105 66 152 0.0 0.0 0.00 0.00 0.00 72 1015.2
20260509185604 68 152 0.0 0.0 0.00 0.00 0.00 70 1015.2
20260509185104 68 152 0.0 0.0 0.00 0.00 0.00 70 1015.2
20260509184604 68 152 0.0 0.0 0.00 0.00 0.00 70 1015.2
20260509184107 68 152 0.0 0.0 0.00 0.00 0.00 70 1015.1
20260509183605 68 152 0.0 0.0 0.00 0.00 0.00 69 1015.1
20260509182604 68 152 2.0 0.0 0.00 0.00 0.00 68 1015.0
20260509181604 69 152 2.0 3.0 0.00 0.00 0.00 67 1014.9
20260509181104 69 152 2.0 3.0 0.00 0.00 0.00 66 1014.8
20260509180604 70 154 2.0 3.0 0.00 0.00 0.00 65 1014.8
20260509180104 70 154 1.0 3.0 0.00 0.00 0.00 65 1014.8
20260509175604 70 154 1.0 3.0 0.00 0.00 0.00 65 1014.8
20260509175104 71 132 2.0 2.0 0.00 0.00 0.00 65 1014.8
20260509173104 71 130 2.0 5.0 0.00 0.00 0.00 63 1014.8
20260509172611 71 128 2.0 3.0 0.00 0.00 0.00 62 1014.9
20260509172105 71 127 2.0 2.0 0.00 0.00 0.00 62 1014.9
20260509171604 72 126 2.0 5.0 0.00 0.00 0.00 62 1014.9
20260509171104 72 141 2.0 5.0 0.00 0.00 0.00 61 1014.9
20260509170611 72 113 2.0 5.0 0.00 0.00 0.00 60 1014.9
20260509170105 73 121 2.0 5.0 0.00 0.00 0.00 59 1014.9
20260509165104 73 137 3.0 2.0 0.00 0.00 0.00 56 1015.0
20260509164606 74 136 3.0 5.0 0.00 0.00 0.00 55 1015.0
20260509164109 74 130 2.0 6.0 0.00 0.00 0.00 54 1015.1
20260509163105 75 143 2.0 5.0 0.00 0.00 0.00 47 1015.2
20260509162604 75 137 2.0 5.0 0.00 0.00 0.00 47 1015.3
20260509161104 76 129 2.0 5.0 0.00 0.00 0.00 49 1015.4
20260509160104 76 111 2.0 3.0 0.00 0.00 0.00 49 1015.4
20260509155604 76 102 2.0 6.0 0.00 0.00 0.00 49 1015.5
20260509155104 77 112 1.0 5.0 0.00 0.00 0.00 47 1015.5
20260509154605 77 122 0.0 5.0 0.00 0.00 0.00 46 1015.5
20260509154104 77 121 2.0 2.0 0.00 0.00 0.00 47 1015.6
20260509153603 76 121 2.0 2.0 0.00 0.00 0.00 44 1015.6
20260509153104 76 121 2.0 2.0 0.00 0.00 0.00 43 1015.6
20260509152604 77 121 2.0 5.0 0.00 0.00 0.00 43 1015.7
20260509152104 78 126 2.0 5.0 0.00 0.00 0.00 43 1015.7
20260509150603 77 300 2.0 2.0 0.00 0.00 0.00 43 1015.8
20260509150104 77 315 2.0 3.0 0.00 0.00 0.00 44 1015.8
20260509145603 77 325 2.0 3.0 0.00 0.00 0.00 44 1015.9
20260509145104 76 355 3.0 5.0 0.00 0.00 0.00 44 1015.9
20260509144604 76 338 3.0 3.0 0.00 0.00 0.00 46 1015.9
20260509144104 76 105 2.0 8.0 0.00 0.00 0.00 45 1016.0
20260509143104 78 87 2.0 3.0 0.00 0.00 0.00 42 1016.1
20260509142604 77 255 2.0 3.0 0.00 0.00 0.00 43 1016.2
20260509142119 78 67 2.0 5.0 0.00 0.00 0.00 45 1016.2
20260509141107 77 243 2.0 3.0 0.00 0.00 0.00 43 1016.1
20260509140104 77 312 2.0 6.0 0.00 0.00 0.00 44 1016.1
20260509134104 76 300 2.0 6.0 0.00 0.00 0.00 44 1016.5
20260509133104 76 90 2.0 5.0 0.00 0.00 0.00 45 1016.5
20260509132607 76 25 2.0 5.0 0.00 0.00 0.00 46 1016.6
20260509132105 76 331 2.0 5.0 0.00 0.00 0.00 45 1016.7
20260509131607 76 169 2.0 3.0 0.00 0.00 0.00 46 1016.7
20260509131105 75 157 2.0 3.0 0.00 0.00 0.00 44 1016.8
20260509130607 75 127 2.0 3.0 0.00 0.00 0.00 44 1016.9
20260509125604 75 21 2.0 3.0 0.00 0.00 0.00 45 1017.0
20260509125107 75 238 2.0 5.0 0.00 0.00 0.00 45 1017.1
20260509124604 75 123 2.0 5.0 0.00 0.00 0.00 46 1017.1
20260509124105 75 128 2.0 5.0 0.00 0.00 0.00 43 1017.2
20260509123619 75 42 2.0 5.0 0.00 0.00 0.00 45 1017.3
20260509123104 75 153 2.0 5.0 0.00 0.00 0.00 44 1017.3
20260509122606 75 16 2.0 6.0 0.00 0.00 0.00 47 1017.2
20260509122107 75 327 2.0 5.0 0.00 0.00 0.00 49 1017.2
20260509121605 74 36 2.0 5.0 0.00 0.00 0.00 48 1017.2
20260509120604 74 122 2.0 5.0 0.00 0.00 0.00 49 1017.4
20260509120104 74 142 2.0 5.0 0.00 0.00 0.00 49 1017.4
20260509115107 74 349 2.0 7.0 0.00 0.00 0.00 52 1017.6
20260509114607 74 352 2.0 5.0 0.00 0.00 0.00 52 1017.6
20260509114104 74 312 2.0 5.0 0.00 0.00 0.00 53 1017.7
20260509113605 73 22 2.0 5.0 0.00 0.00 0.00 53 1017.7
20260509113104 73 101 2.0 6.0 0.00 0.00 0.00 52 1017.7
20260509112604 73 69 2.0 5.0 0.00 0.00 0.00 52 1017.8
20260509112104 73 19 2.0 5.0 0.00 0.00 0.00 53 1017.8
20260509111604 73 40 2.0 5.0 0.00 0.00 0.00 54 1017.8
20260509111106 73 70 2.0 5.0 0.00 0.00 0.00 55 1017.9
20260509110603 73 90 2.0 5.0 0.00 0.00 0.00 56 1018.0
20260509105604 72 88 2.0 6.0 0.00 0.00 0.00 55 1018.1
20260509105104 72 352 2.0 6.0 0.00 0.00 0.00 58 1018.1
20260509104607 72 137 2.0 6.0 0.00 0.00 0.00 56 1018.1
20260509104108 72 307 2.0 5.0 0.00 0.00 0.00 56 1018.1
20260509103604 72 32 2.0 8.0 0.00 0.00 0.00 59 1018.1
20260509103105 72 305 2.0 8.0 0.00 0.00 0.00 57 1018.1
20260509102611 72 342 2.0 6.0 0.00 0.00 0.00 59 1018.2
20260509102104 71 76 2.0 6.0 0.00 0.00 0.00 60 1018.3
20260509100604 71 358 2.0 6.0 0.00 0.00 0.00 59 1018.4
20260509100104 71 337 2.0 6.0 0.00 0.00 0.00 60 1018.4
20260509095604 70 2 2.0 6.0 0.00 0.00 0.00 60 1018.5
20260509094619 70 283 2.0 5.0 0.00 0.00 0.00 61 1018.6
20260509094104 70 50 2.0 3.0 0.00 0.00 0.00 62 1018.7
20260509093604 69 156 2.0 3.0 0.00 0.00 0.00 62 1018.7
20260509092605 69 339 2.0 5.0 0.00 0.00 0.00 64 1018.8
20260509092105 69 340 2.0 3.0 0.00 0.00 0.00 64 1018.9
20260509091605 69 315 2.0 5.0 0.00 0.00 0.00 63 1018.9
20260509091104 69 347 2.0 6.0 0.00 0.00 0.00 64 1018.9
20260509090605 68 342 2.0 5.0 0.00 0.00 0.00 68 1018.9
20260509090104 68 25 2.0 3.0 0.00 0.00 0.00 70 1018.9
20260509085604 67 175 2.0 6.0 0.00 0.00 0.00 69 1019.0